HULIANWANG DIGUI-78 (65310 NORAD) Tracking and Keplerian Element Data

This shows tracking and keplerian element data for the satellite.

Feedback or suggestion? Click here.




ElementValue
Catalog65310
NameHULIANWANG DIGUI-78
Epoch Orbit1588
Epoch Day354.11062824
Epoch Year2025
RAAN127.9706
Inclination50.0098
Eccentricity2.06E-05
Argument of Perigee167.895
Mean Anonmoly192.1928
Mean Motion13.29335292
Decay Rate-1.19E-06
L11 65310U 25187F 25354.11062824 -.00000119 00000+0 11703-4 0 9998
L22 65310 50.0098 127.9706 0000206 167.8950 192.1928 13.29335292 15888



Live tracking and technical data element details for HULIANWANG DIGUI-78 (NORAD 65310). HULIANWANG DIGUI-78 can be tracked NOW for your location showing map with azimuth and elevation plus other details from your city location.







IsCatalogInMostPopularTable: catalog: 65310, numindb: 6
Update: records affected: 1



GetName: 65310 HULIANWANG DIGUI-78

Hit Count: updated at: Mon, 20 Apr 2026 09:09:59 GMT